sat.trackr.live / text

‹ back to catalog

STARLINK-36867

NORAD 67983 · 2026-038Y

PAYLOAD ACTIVE UNKNOWN

§ Identity

Operator
Country
US
Launch date
2026-02-25
Launch site
AFWTR
Launch vehicle
Mass (kg)
RCS (m²)

Purposes: comms

External: N2YO · Heavens-Above · Gunter

§ Orbital elements

Epoch: 2026-05-25T00:42:12.014208Z

Period
93.90 min
Inclination
97.2838°
Eccentricity
0.0000616
Mean motion
15.33470361 rev/d
Perigee alt
465.0 km
Apogee alt
465.9 km
Semi-major
6,843.6 km
B*
4.5516e-4
RAAN
155.1369°
Arg perigee
68.3892°
Mean anomaly
291.7416°
Rev number
1,494

§ Raw data

STARLINK-368671 67983U 26038Y   26145.02930572  .00014659  00000+0  45516-3 0  99962 67983  97.2838 155.1369 0000616  68.3892 291.7416 15.33470361 14942

JSON: /api/v1/satellites/67983 · /tle

For live sub-satellite position, see the globe view (requires WebGL).

§ Visibility from observer

Set your observer location to see the next 7 days of passes ≥ 10°. The values pass through the URL so the page stays shareable.

No JS? Fill the form by hand. The geolocation button needs JavaScript.